Le nostre stazioni meteo in Italia

Pubblicità
Il mio iltempo24.it
Cozzo Spadaro, Italia (16480): Temperatura & dewpoint: 12.11.2018 14:00:00 - 18.11.2018 14:00:00 (CET)Cozzo Spadaro, Italia (16480): velocità del vento: 12.11.2018 14:00:00 - 18.11.2018 14:00:00 (CET)Cozzo Spadaro, Italia (16480): direzione del vento: 12.11.2018 14:00:00 - 18.11.2018 14:00:00 (CET)Cozzo Spadaro, Italia (16480): reduced air pressure: 12.11.2018 14:00:00 - 18.11.2018 14:00:00 (CET)Cozzo Spadaro, Italia (16480): visibility: 12.11.2018 14:00:00 - 18.11.2018 14:00:00 (CET)Cozzo Spadaro, Italia (16480): ore di luce: 12.11.2018 14:00:00 - 18.11.2018 14:00:00 (CET)
Data & Tempo tt [°C] td [°C] ff [km/h] ff [kn] dd ppp [hPa] vv [km] sd [min]
18.11.2018 14:00:00 19,2 11,0 16 9 O 1007,4 25 60
18.11.2018 13:00:00 19,4 10,1 13 7 ONO 1007,5 25 60
18.11.2018 12:00:00 19,4 11,9 4 2 SO 1008,0 25 60
18.11.2018 11:00:00 19,2 8,8 4 2 N 1008,0 25 60
18.11.2018 10:00:00 18,0 8,8 9 5 NNO 1007,3 25 54
18.11.2018 09:00:00 16,2 10,3 9 5 NO 1006,6 25 0
18.11.2018 08:00:00 16,2 11,4 11 6 N 1006,0 25 0
18.11.2018 07:00:00 16,8 11,5 22 12 NNE 1005,9 20 0
18.11.2018 06:00:00 - - - - - - - -
18.11.2018 05:00:00 - - - - - - - -
18.11.2018 04:00:00 - - - - - - - -
18.11.2018 03:00:00 - - - - - - - -
18.11.2018 02:00:00 - - - - - - - -
18.11.2018 01:00:00 - - - - - - - -
18.11.2018 00:00:00 - - - - - - - -
17.11.2018 23:00:00 - - - - - - - -
17.11.2018 22:00:00 - - - - - - - -
17.11.2018 21:00:00 - - - - - - - -
17.11.2018 20:00:00 - - - - - - - -
17.11.2018 19:00:00 16,8 12,4 29 16 ENE 1010,1 10 -
17.11.2018 18:00:00 16,6 12,4 29 16 ENE 1010,1 9 -
17.11.2018 17:00:00 16,6 12,5 29 16 ENE 1010,3 9 0
17.11.2018 16:00:00 17,0 12,7 29 16 ENE 1010,2 10 0
17.11.2018 15:00:00 17,2 12,5 34 18 ENE 1010,4 10 0
17.11.2018 14:00:00 17,4 12,3 31 17 ENE 1010,8 15 0
17.11.2018 13:00:00 17,4 12,1 31 17 ENE 1011,2 15 6
17.11.2018 12:00:00 17,4 11,9 29 16 ENE 1011,6 15 6
17.11.2018 11:00:00 17,4 12,1 31 17 ENE 1012,0 12 6
17.11.2018 10:00:00 17,4 12,3 31 17 ENE 1012,0 12 6
17.11.2018 09:00:00 16,8 11,9 31 17 E 1012,1 12 0
17.11.2018 08:00:00 16,2 11,6 28 15 ENE 1012,0 10 0
17.11.2018 07:00:00 16,2 10,7 29 16 E 1012,0 12 0
17.11.2018 06:00:00 - - - - - - - -
17.11.2018 05:00:00 - - - - - - - -
17.11.2018 04:00:00 - - - - - - - -
17.11.2018 03:00:00 - - - - - - - -
17.11.2018 02:00:00 - - - - - - - -
17.11.2018 01:00:00 - - - - - - - -
17.11.2018 00:00:00 - - - - - - - -
16.11.2018 23:00:00 - - - - - - - -
16.11.2018 22:00:00 - - - - - - - -
16.11.2018 21:00:00 - - - - - - - -
16.11.2018 20:00:00 - - - - - - - -
16.11.2018 19:00:00 17,0 13,1 5 3 E 1013,9 15 -
16.11.2018 18:00:00 16,8 13,0 5 3 E 1013,8 15 -
16.11.2018 17:00:00 16,8 13,0 4 2 E 1014,1 20 0
16.11.2018 16:00:00 17,0 13,1 2 1 E 1014,1 20 0
16.11.2018 15:00:00 17,0 13,1 15 8 E 1014,1 20 0
16.11.2018 14:00:00 16,8 13,0 9 5 NE 1015,5 10 0
16.11.2018 13:00:00 16,8 13,0 13 7 NE 1016,0 10 0
16.11.2018 12:00:00 16,8 13,3 11 6 NE 1016,1 10 0
16.11.2018 11:00:00 17,0 13,1 15 8 NNE 1016,8 10 0
16.11.2018 10:00:00 17,0 13,0 8 4 E 1017,1 20 0
16.11.2018 09:00:00 16,4 13,0 8 4 NNE 1017,1 20 0
16.11.2018 08:00:00 16,2 12,5 2 1 NE 1018,2 20 0
16.11.2018 07:00:00 16,2 12,5 2 1 N 1017,0 20 0
16.11.2018 06:00:00 - - - - - - - -
16.11.2018 05:00:00 - - - - - - - -
16.11.2018 04:00:00 - - - - - - - -
16.11.2018 03:00:00 - - - - - - - -
16.11.2018 02:00:00 - - - - - - - -
16.11.2018 01:00:00 - - - - - - - -
16.11.2018 00:00:00 - - - - - - - -
15.11.2018 23:00:00 - - - - - - - -
15.11.2018 22:00:00 - - - - - - - -
15.11.2018 21:00:00 - - - - - - - -
15.11.2018 20:00:00 - - - - - - - -
15.11.2018 19:00:00 17,6 12,3 2 1 OSO 1018,9 20 -
15.11.2018 18:00:00 18,0 12,5 2 1 OSO 1019,0 20 -
15.11.2018 17:00:00 18,4 12,6 2 1 OSO 1019,1 20 0
15.11.2018 16:00:00 19,0 12,7 2 1 SO 1019,5 20 0
15.11.2018 15:00:00 19,2 12,7 2 1 S 1019,8 20 60
15.11.2018 14:00:00 19,4 12,7 2 1 S 1020,0 20 42
15.11.2018 13:00:00 19,6 12,6 2 1 SSE 1020,0 20 60
15.11.2018 12:00:00 19,4 12,7 4 2 E 1021,1 20 60
15.11.2018 11:00:00 19,0 13,0 2 1 E 1021,3 20 60
15.11.2018 10:00:00 18,8 13,9 4 2 NE 1021,1 20 60
15.11.2018 09:00:00 18,4 13,7 0 0 N 1021,1 20 60
15.11.2018 08:00:00 16,0 12,2 2 1 NNO 1021,2 20 18
15.11.2018 07:00:00 15,0 11,4 8 4 N 1021,1 20 0
15.11.2018 06:00:00 - - - - - - - -
15.11.2018 05:00:00 - - - - - - - -
15.11.2018 04:00:00 - - - - - - - -
15.11.2018 03:00:00 - - - - - - - -
15.11.2018 02:00:00 - - - - - - - -
15.11.2018 01:00:00 - - - - - - - -
15.11.2018 00:00:00 - - - - - - - -
14.11.2018 23:00:00 - - - - - - - -
14.11.2018 22:00:00 - - - - - - - -
14.11.2018 21:00:00 - - - - - - - -
14.11.2018 20:00:00 - - - - - - - -
14.11.2018 19:00:00 18,0 11,8 8 4 NO 1022,1 18 0
14.11.2018 18:00:00 18,6 10,7 2 1 NNO 1022,1 20 0
14.11.2018 17:00:00 19,0 12,5 2 1 ENE 1022,1 25 36
14.11.2018 16:00:00 19,8 13,5 5 3 ENE 1022,3 20 60
14.11.2018 15:00:00 20,0 13,2 8 4 ENE 1022,4 25 60
14.11.2018 14:00:00 20,0 12,7 5 3 ENE 1022,9 25 60
14.11.2018 13:00:00 20,0 12,5 5 3 E 1023,2 25 60
14.11.2018 12:00:00 20,0 12,5 5 3 ENE 1024,1 25 60
14.11.2018 11:00:00 20,0 13,2 8 4 NE 1024,6 25 60
14.11.2018 10:00:00 19,4 13,1 5 3 NE 1024,4 20 60
14.11.2018 09:00:00 17,8 12,3 4 2 N 1024,2 25 60
14.11.2018 08:00:00 15,6 11,6 5 3 N 1024,2 20 18
14.11.2018 07:00:00 15,2 11,6 8 4 N 1024,2 20 0
14.11.2018 06:00:00 - - - - - - - -
14.11.2018 05:00:00 - - - - - - - -
14.11.2018 04:00:00 - - - - - - - -
14.11.2018 03:00:00 - - - - - - - -
14.11.2018 02:00:00 - - - - - - - -
14.11.2018 01:00:00 - - - - - - - -
14.11.2018 00:00:00 - - - - - - - -
13.11.2018 23:00:00 - - - - - - - -
13.11.2018 22:00:00 - - - - - - - -
13.11.2018 21:00:00 - - - - - - - -
13.11.2018 20:00:00 - - - - - - - -
13.11.2018 19:00:00 18,2 13,3 2 1 NNO 1025,1 20 -
13.11.2018 18:00:00 18,6 13,5 2 1 E 1024,9 20 0
13.11.2018 17:00:00 19,2 13,6 8 4 E 1024,5 20 48
13.11.2018 16:00:00 20,2 14,3 8 4 E 1024,5 25 60
13.11.2018 15:00:00 20,6 14,5 11 6 E 1024,4 25 60
13.11.2018 14:00:00 20,8 14,7 8 4 E 1025,1 25 60
13.11.2018 13:00:00 20,6 14,3 9 5 NE 1025,4 25 60
13.11.2018 12:00:00 20,4 14,3 9 5 ENE 1026,2 30 60
13.11.2018 11:00:00 20,2 15,4 9 5 NE 1026,2 25 60
13.11.2018 10:00:00 19,8 15,3 9 5 NE 1026,2 20 60
13.11.2018 09:00:00 18,8 14,9 5 3 N 1026,1 20 42
13.11.2018 08:00:00 17,0 13,9 8 4 NNE 1025,4 20 0
13.11.2018 07:00:00 17,0 13,7 8 4 NNE 1025,2 20 0
13.11.2018 06:00:00 - - - - - - - -
13.11.2018 05:00:00 - - - - - - - -
13.11.2018 04:00:00 - - - - - - - -
13.11.2018 03:00:00 - - - - - - - -
13.11.2018 02:00:00 - - - - - - - -
13.11.2018 01:00:00 - - - - - - - -
13.11.2018 00:00:00 - - - - - - - -
12.11.2018 23:00:00 - - - - - - - -
12.11.2018 22:00:00 - - - - - - - -
12.11.2018 21:00:00 - - - - - - - -
12.11.2018 20:00:00 - - - - - - - -
12.11.2018 19:00:00 19,2 14,3 13 7 E 1024,1 20 -
12.11.2018 18:00:00 19,6 14,8 13 7 ESE 1024,1 20 -
12.11.2018 17:00:00 20,6 15,4 11 6 E 1023,5 20 12
12.11.2018 16:00:00 21,0 15,3 15 8 E 1023,1 20 60
12.11.2018 15:00:00 21,0 15,3 16 9 E 1023,0 20 60
12.11.2018 14:00:00 - - - - - - - -

tt = Temperatura
td = dewpoint
ff = velocità del vento
dd = direzione del vento
ppp = reduced air pressure
vv = visibility
sd = ore di luce

Stazioni seguenti

WeatherPro
AMSI
MeteoEarth